Precipitable_Water
0.34 0.28 0.29 0.31 0.35 0.43 0.58 0.62 0.60 0.57 0.62 0.64 0.64 0.61 0.60 0.61 0.69 0.84 0.90 1.04 1.16 0.99 1.07 1.15 1.20 1.26 1.33 1.40 1.43 1.41 1.40 1.30 1.21 1.05 0.98 1.00 1.00 0.94 0.85 0.88 0.97 1.04 1.12 1.28 1.32 1.36 1.40 1.43 1.47 1.47 1.44 1.37 1.33 1.34 1.39 1.41 1.39 1.37 1.35 1.36 1.33 1.38 1.39 1.35 1.31 1.28 1.25 1.21 1.22 1.27 1.27 1.29 1.38 1.45 1.52 1.54 1.60 1.63 1.66 1.70 1.70 1.71 1.72 1.73 1.73 1.74
0.30 0.25 0.28 0.35 0.39 0.40 0.43 0.51 0.58 0.59 0.62 0.57 0.55 0.55 0.60 0.63 0.62 0.83 0.87 1.03 1.13 0.93 0.97 1.16 1.17 1.24 1.34 1.42 1.45 1.45 1.36 1.24 1.18 1.07 0.97 0.97 1.01 0.96 0.85 0.86 0.92 1.03 1.19 1.26 1.26 1.33 1.37 1.40 1.42 1.45 1.43 1.38 1.24 1.27 1.33 1.38 1.40 1.39 1.38 1.35 1.36 1.39 1.36 1.35 1.33 1.30 1.27 1.27 1.22 1.19 1.21 1.29 1.33 1.38 1.41 1.44 1.53 1.59 1.64 1.69 1.71 1.72 1.73 1.74 1.75 1.76
0.22 0.21 0.28 0.34 0.38 0.41 0.42 0.42 0.41 0.39 0.43 0.49 0.50 0.58 0.54 0.58 0.72 0.88 0.96 1.04 1.07 0.98 0.90 1.12 1.12 1.22 1.34 1.42 1.50 1.42 1.34 1.32 1.28 1.17 1.03 0.96 0.97 0.97 0.87 0.86 0.92 1.01 1.07 1.16 1.23 1.28 1.32 1.36 1.38 1.42 1.42 1.38 1.32 1.28 1.30 1.38 1.43 1.42 1.41 1.41 1.41 1.41 1.38 1.35 1.35 1.33 1.28 1.29 1.29 1.26 1.25 1.27 1.29 1.41 1.47 1.51 1.56 1.60 1.59 1.63 1.66 1.69 1.71 1.72 1.74 1.77
0.17 0.21 0.27 0.33 0.36 0.38 0.39 0.40 0.39 0.39 0.44 0.47 0.52 0.48 0.45 0.59 0.56 0.57 0.87 0.99 1.03 0.95 0.91 1.05 1.13 1.24 1.37 1.44 1.45 1.47 1.42 1.39 1.40 1.28 1.15 1.05 0.98 0.97 0.87 0.86 0.90 0.95 1.02 1.07 1.16 1.20 1.28 1.31 1.35 1.39 1.39 1.37 1.36 1.30 1.30 1.34 1.38 1.42 1.43 1.45 1.44 1.45 1.47 1.42 1.39 1.37 1.37 1.35 1.35 1.35 1.32 1.33 1.34 1.33 1.42 1.47 1.53 1.55 1.55 1.54 1.61 1.66 1.69 1.71 1.73 1.77
0.18 0.21 0.24 0.25 0.30 0.33 0.35 0.36 0.35 0.35 0.37 0.47 0.50 0.50 0.50 0.51 0.57 0.60 0.77 0.93 0.98 1.02 1.04 1.01 1.08 1.14 1.27 1.24 1.30 1.41 1.50 1.44 1.40 1.35 1.22 1.10 1.05 1.08 0.97 0.93 0.94 0.93 0.99 1.05 1.12 1.18 1.23 1.24 1.27 1.31 1.37 1.40 1.33 1.30 1.27 1.30 1.34 1.38 1.41 1.47 1.49 1.49 1.50 1.52 1.48 1.45 1.43 1.38 1.33 1.33 1.32 1.34 1.33 1.37 1.37 1.35 1.35 1.43 1.48 1.52 1.53 1.57 1.64 1.66 1.70 1.76
0.19 0.24 0.26 0.23 0.22 0.25 0.29 0.31 0.34 0.34 0.34 0.41 0.50 0.51 0.51 0.55 0.57 0.67 0.82 0.82 0.73 0.73 0.94 0.90 0.74 0.90 1.13 1.20 1.24 1.33 1.38 1.36 1.42 1.33 1.21 1.10 1.01 1.03 0.94 0.90 0.94 0.97 1.03 1.05 1.10 1.15 1.21 1.22 1.26 1.31 1.34 1.33 1.33 1.31 1.31 1.32 1.35 1.39 1.42 1.47 1.51 1.53 1.54 1.54 1.54 1.53 1.47 1.39 1.30 1.24 1.17 1.12 1.14 1.15 1.19 1.19 1.22 1.30 1.36 1.43 1.56 1.58 1.59 1.63 1.65 1.70
0.19 0.22 0.21 0.22 0.22 0.21 0.21 0.25 0.33 0.33 0.31 0.36 0.42 0.61 0.66 0.64 0.67 0.74 0.79 0.76 0.58 0.52 0.81 0.99 0.68 0.72 1.12 1.09 1.18 1.28 1.29 1.30 1.39 1.35 1.28 1.17 1.02 0.98 0.93 0.91 0.93 0.94 0.97 1.05 1.11 1.15 1.17 1.20 1.22 1.26 1.28 1.30 1.29 1.33 1.37 1.36 1.35 1.40 1.44 1.47 1.51 1.52 1.52 1.55 1.56 1.56 1.50 1.42 1.35 1.28 1.23 1.22 1.20 1.18 1.24 1.35 1.40 1.40 1.47 1.53 1.53 1.56 1.57 1.59 1.60 1.67
0.18 0.21 0.22 0.21 0.20 0.20 0.19 0.19 0.26 0.33 0.31 0.31 0.63 0.66 0.67 0.65 0.66 0.76 0.79 0.74 0.68 0.81 0.88 0.94 0.92 0.78 0.83 1.03 1.20 1.28 1.23 1.25 1.29 1.32 1.31 1.24 1.10 0.99 0.94 0.92 0.93 0.96 0.97 1.00 1.05 1.12 1.16 1.17 1.17 1.18 1.25 1.28 1.28 1.34 1.38 1.36 1.36 1.38 1.42 1.46 1.48 1.53 1.53 1.54 1.56 1.55 1.54 1.45 1.40 1.33 1.28 1.27 1.27 1.25 1.26 1.34 1.37 1.43 1.49 1.47 1.51 1.55 1.56 1.59 1.60 1.62
0.20 0.24 0.22 0.22 0.20 0.19 0.18 0.19 0.23 0.31 0.30 0.39 0.65 0.74 0.70 0.69 0.74 0.82 0.79 0.73 0.73 0.66 0.56 0.76 0.98 0.77 0.77 0.99 1.20 1.24 1.15 1.21 1.23 1.28 1.30 1.27 1.17 1.07 0.98 0.93 0.94 0.98 0.99 1.00 1.02 1.07 1.14 1.16 1.15 1.21 1.24 1.30 1.34 1.35 1.33 1.35 1.37 1.40 1.44 1.47 1.50 1.50 1.53 1.55 1.56 1.54 1.54 1.52 1.47 1.41 1.36 1.31 1.37 1.38 1.37 1.40 1.42 1.42 1.45 1.43 1.49 1.50 1.54 1.58 1.60 1.60
0.27 0.26 0.28 0.23 0.22 0.19 0.20 0.21 0.24 0.29 0.31 0.58 0.72 0.78 0.80 0.79 0.79 0.84 0.77 0.71 0.69 0.58 0.47 0.65 0.86 0.69 0.74 0.95 1.02 1.16 1.12 1.11 1.21 1.29 1.32 1.29 1.19 1.08 1.02 0.97 0.95 1.00 1.02 1.04 1.04 1.07 1.13 1.18 1.17 1.22 1.29 1.32 1.32 1.35 1.37 1.39 1.41 1.41 1.43 1.44 1.47 1.47 1.52 1.57 1.58 1.57 1.54 1.52 1.52 1.47 1.43 1.38 1.40 1.44 1.44 1.41 1.38 1.40 1.44 1.40 1.43 1.47 1.49 1.52 1.53 1.56
0.30 0.32 0.31 0.26 0.22 0.23 0.26 0.32 0.27 0.31 0.45 0.71 0.70 0.64 0.70 0.70 0.71 0.81 0.78 0.71 0.60 0.43 0.51 0.70 0.83 0.79 0.65 0.86 0.96 0.97 1.00 1.13 1.23 1.31 1.36 1.36 1.28 1.14 1.07 1.01 0.96 0.98 1.01 1.03 1.05 1.08 1.11 1.19 1.20 1.24 1.23 1.28 1.33 1.35 1.37 1.38 1.40 1.41 1.41 1.42 1.41 1.47 1.54 1.59 1.59 1.59 1.53 1.52 1.51 1.48 1.48 1.46 1.44 1.45 1.44 1.39 1.37 1.41 1.40 1.37 1.41 1.44 1.46 1.50 1.50 1.54
0.27 0.29 0.27 0.28 0.32 0.35 0.43 0.33 0.43 0.48 0.56 0.59 0.57 0.55 0.55 0.53 0.65 0.67 0.66 0.68 0.43 0.38 0.57 0.71 0.77 0.86 0.59 0.77 0.98 1.13 1.20 1.19 1.19 1.23 1.31 1.32 1.28 1.14 1.06 1.04 1.00 0.98 1.00 1.04 1.05 1.06 1.11 1.17 1.21 1.22 1.21 1.25 1.29 1.32 1.32 1.36 1.39 1.39 1.40 1.42 1.40 1.45 1.51 1.56 1.60 1.60 1.57 1.54 1.52 1.51 1.51 1.49 1.49 1.49 1.44 1.40 1.37 1.40 1.39 1.40 1.40 1.45 1.46 1.47 1.51 1.53
0.25 0.24 0.30 0.37 0.48 0.41 0.40 0.36 0.46 0.56 0.58 0.56 0.51 0.49 0.34 0.38 0.44 0.41 0.49 0.38 0.39 0.37 0.60 0.69 0.74 0.68 0.69 0.82 0.99 1.13 1.19 1.24 1.26 1.29 1.33 1.35 1.29 1.18 1.05 1.03 1.03 1.00 1.01 1.05 1.05 1.06 1.09 1.11 1.13 1.15 1.18 1.22 1.23 1.23 1.28 1.30 1.35 1.38 1.38 1.40 1.38 1.40 1.48 1.52 1.57 1.58 1.59 1.56 1.53 1.52 1.53 1.54 1.56 1.54 1.51 1.48 1.44 1.46 1.44 1.45 1.42 1.41 1.39 1.45 1.44 1.48
0.27 0.36 0.41 0.47 0.47 0.53 0.46 0.29 0.41 0.39 0.50 0.51 0.42 0.41 0.35 0.32 0.34 0.31 0.39 0.44 0.42 0.51 0.68 0.70 0.80 0.59 0.74 0.85 1.03 1.05 1.20 1.31 1.30 1.31 1.39 1.44 1.37 1.22 1.07 1.03 1.05 1.04 1.03 1.05 1.07 1.07 1.07 1.09 1.13 1.15 1.17 1.17 1.20 1.22 1.25 1.28 1.30 1.33 1.34 1.37 1.35 1.37 1.45 1.50 1.53 1.54 1.55 1.57 1.58 1.57 1.55 1.57 1.58 1.57 1.57 1.55 1.51 1.52 1.52 1.53 1.49 1.47 1.46 1.46 1.45 1.48
0.20 0.20 0.27 0.35 0.30 0.60 0.48 0.43 0.43 0.43 0.44 0.51 0.56 0.43 0.41 0.41 0.37 0.30 0.35 0.31 0.32 0.40 0.58 0.78 0.60 0.54 0.56 0.74 0.98 1.07 1.20 1.31 1.39 1.39 1.38 1.41 1.41 1.33 1.19 1.07 1.07 1.10 1.08 1.08 1.08 1.08 1.07 1.09 1.12 1.15 1.18 1.17 1.18 1.21 1.23 1.26 1.28 1.30 1.30 1.32 1.32 1.34 1.39 1.44 1.48 1.52 1.50 1.52 1.57 1.60 1.61 1.61 1.61 1.61 1.62 1.63 1.62 1.60 1.57 1.59 1.57 1.57 1.58 1.55 1.57 1.56
0.24 0.25 0.32 0.35 0.36 0.56 0.51 0.57 0.61 0.57 0.59 0.61 0.59 0.58 0.46 0.47 0.58 0.39 0.46 0.43 0.45 0.46 0.46 0.59 0.54 0.66 0.66 0.99 1.07 1.13 1.17 1.24 1.33 1.39 1.42 1.37 1.38 1.38 1.28 1.12 1.07 1.11 1.14 1.15 1.12 1.09 1.09 1.11 1.13 1.16 1.18 1.20 1.19 1.22 1.24 1.25 1.28 1.27 1.27 1.30 1.31 1.32 1.36 1.40 1.44 1.47 1.49 1.50 1.53 1.56 1.58 1.61 1.64 1.66 1.65 1.65 1.67 1.67 1.66 1.65 1.63 1.62 1.63 1.64 1.66 1.69
0.27 0.24 0.33 0.39 0.38 0.41 0.53 0.66 0.65 0.71 0.42 0.62 0.58 0.48 0.55 0.67 0.62 0.54 0.55 0.60 0.58 0.49 0.41 0.60 0.57 0.67 0.84 0.89 0.99 1.09 1.10 1.13 1.20 1.28 1.37 1.38 1.38 1.38 1.31 1.20 1.10 1.11 1.15 1.17 1.16 1.12 1.11 1.13 1.14 1.15 1.17 1.20 1.22 1.23 1.23 1.26 1.30 1.29 1.29 1.29 1.29 1.33 1.37 1.39 1.42 1.45 1.48 1.50 1.48 1.50 1.55 1.59 1.62 1.64 1.64 1.62 1.62 1.63 1.67 1.68 1.68 1.68 1.70 1.73 1.72 1.72
0.26 0.27 0.35 0.37 0.40 0.49 0.48 0.54 0.71 0.79 0.72 0.64 0.50 0.58 0.70 0.79 0.71 0.55 0.41 0.50 0.44 0.35 0.40 0.52 0.46 0.53 0.59 0.52 0.94 1.01 1.02 1.08 1.12 1.18 1.29 1.39 1.43 1.36 1.34 1.30 1.19 1.14 1.15 1.17 1.18 1.16 1.13 1.13 1.13 1.15 1.18 1.20 1.22 1.23 1.25 1.28 1.34 1.37 1.37 1.35 1.32 1.33 1.33 1.37 1.42 1.44 1.46 1.47 1.47 1.47 1.50 1.56 1.61 1.64 1.65 1.66 1.65 1.66 1.65 1.65 1.66 1.69 1.70 1.70 1.73 1.74
0.33 0.26 0.33 0.37 0.41 0.53 0.60 0.61 0.64 0.78 0.82 0.65 0.61 0.80 0.52 0.49 0.43 0.56 0.49 0.38 0.36 0.33 0.36 0.44 0.51 0.52 0.58 0.60 0.79 0.86 0.94 1.01 1.08 1.16 1.24 1.31 1.39 1.38 1.36 1.34 1.29 1.23 1.19 1.17 1.17 1.16 1.14 1.12 1.13 1.16 1.16 1.20 1.24 1.28 1.29 1.31 1.35 1.39 1.42 1.44 1.42 1.37 1.38 1.41 1.45 1.46 1.48 1.49 1.49 1.49 1.48 1.52 1.59 1.64 1.67 1.70 1.70 1.69 1.65 1.63 1.65 1.65 1.69 1.73 1.74 1.72
0.36 0.26 0.30 0.38 0.37 0.43 0.53 0.61 0.45 0.59 0.75 0.74 0.73 0.65 0.72 0.58 0.51 0.44 0.49 0.53 0.50 0.39 0.36 0.35 0.46 0.42 0.61 0.67 0.80 0.87 0.97 1.03 1.07 1.13 1.18 1.29 1.38 1.41 1.39 1.35 1.34 1.31 1.23 1.17 1.15 1.14 1.12 1.10 1.12 1.15 1.17 1.18 1.20 1.25 1.31 1.35 1.37 1.36 1.41 1.45 1.46 1.48 1.48 1.47 1.46 1.47 1.44 1.46 1.48 1.49 1.52 1.54 1.60 1.65 1.65 1.68 1.69 1.66 1.65 1.67 1.69 1.68 1.66 1.68 1.73 1.72
0.34 0.35 0.25 0.35 0.42 0.41 0.36 0.44 0.47 0.48 0.52 0.58 0.57 0.58 0.62 0.60 0.68 0.58 0.61 0.52 0.46 0.40 0.41 0.37 0.35 0.45 0.62 0.84 0.86 0.91 1.00 1.08 1.09 1.10 1.19 1.28 1.38 1.41 1.40 1.37 1.37 1.37 1.27 1.17 1.13 1.13 1.14 1.14 1.14 1.17 1.21 1.23 1.25 1.28 1.31 1.33 1.33 1.35 1.39 1.41 1.45 1.45 1.46 1.46 1.48 1.48 1.45 1.46 1.45 1.47 1.47 1.51 1.55 1.58 1.63 1.65 1.68 1.67 1.69 1.71 1.74 1.73 1.72 1.73 1.70 1.73
0.32 0.34 0.27 0.33 0.33 0.35 0.39 0.49 0.50 0.54 0.59 0.53 0.55 0.55 0.59 0.51 0.47 0.39 0.39 0.57 0.51 0.43 0.39 0.37 0.34 0.46 0.68 0.98 0.97 0.98 1.07 1.13 1.18 1.18 1.20 1.27 1.35 1.39 1.39 1.36 1.37 1.37 1.32 1.23 1.17 1.16 1.17 1.18 1.19 1.21 1.24 1.26 1.26 1.26 1.26 1.29 1.34 1.35 1.35 1.38 1.42 1.46 1.48 1.48 1.49 1.49 1.49 1.48 1.45 1.42 1.45 1.50 1.55 1.58 1.60 1.60 1.63 1.63 1.67 1.71 1.76 1.78 1.76 1.70 1.73 1.75
0.38 0.36 0.32 0.29 0.32 0.37 0.44 0.53 0.62 0.65 0.68 0.72 0.68 0.62 0.67 0.58 0.51 0.44 0.38 0.46 0.51 0.51 0.54 0.51 0.41 0.45 0.83 1.00 1.01 1.03 1.11 1.17 1.23 1.27 1.26 1.30 1.35 1.39 1.40 1.37 1.38 1.39 1.36 1.31 1.24 1.20 1.21 1.23 1.23 1.23 1.23 1.23 1.23 1.23 1.25 1.28 1.29 1.31 1.35 1.39 1.41 1.41 1.45 1.51 1.54 1.55 1.53 1.50 1.46 1.42 1.44 1.47 1.50 1.54 1.56 1.55 1.57 1.57 1.62 1.68 1.74 1.78 1.74 1.71 1.72 1.75
0.50 0.33 0.30 0.31 0.36 0.41 0.47 0.53 0.59 0.66 0.64 0.62 0.69 0.77 0.70 0.57 0.57 0.50 0.49 0.53 0.46 0.51 0.45 0.48 0.40 0.51 0.84 1.04 1.04 1.05 1.13 1.19 1.26 1.30 1.30 1.33 1.38 1.42 1.41 1.40 1.40 1.40 1.43 1.43 1.38 1.32 1.28 1.27 1.29 1.28 1.25 1.26 1.26 1.26 1.26 1.28 1.29 1.31 1.34 1.38 1.42 1.40 1.45 1.52 1.56 1.57 1.54 1.51 1.49 1.50 1.48 1.44 1.46 1.47 1.50 1.50 1.54 1.53 1.56 1.62 1.68 1.74 1.72 1.72 1.72 1.69
0.30 0.35 0.32 0.27 0.28 0.32 0.37 0.44 0.47 0.63 0.66 0.60 0.58 0.65 0.69 0.70 0.68 0.67 0.68 0.66 0.47 0.47 0.47 0.43 0.36 0.46 0.79 1.04 1.05 1.08 1.11 1.13 1.21 1.29 1.37 1.35 1.39 1.42 1.43 1.44 1.42 1.42 1.44 1.44 1.41 1.38 1.35 1.32 1.29 1.27 1.27 1.26 1.27 1.29 1.30 1.30 1.31 1.32 1.34 1.38 1.39 1.41 1.47 1.54 1.62 1.61 1.59 1.56 1.52 1.53 1.49 1.45 1.44 1.41 1.41 1.44 1.49 1.51 1.54 1.57 1.61 1.67 1.67 1.68 1.66 1.68
0.34 0.34 0.31 0.24 0.22 0.21 0.23 0.25 0.30 0.39 0.49 0.57 0.59 0.61 0.64 0.60 0.58 0.53 0.44 0.50 0.41 0.49 0.50 0.46 0.43 0.60 0.82 0.99 1.00 1.01 1.08 1.11 1.24 1.32 1.37 1.44 1.44 1.45 1.49 1.49 1.46 1.44 1.41 1.43 1.44 1.42 1.37 1.35 1.33 1.32 1.31 1.31 1.31 1.32 1.33 1.34 1.35 1.37 1.40 1.41 1.44 1.44 1.47 1.53 1.61 1.63 1.63 1.63 1.60 1.58 1.54 1.50 1.46 1.41 1.39 1.40 1.43 1.48 1.54 1.56 1.57 1.60 1.64 1.65 1.62 1.66
0.35 0.38 0.34 0.31 0.28 0.27 0.30 0.36 0.46 0.51 0.51 0.45 0.50 0.54 0.56 0.61 0.61 0.55 0.51 0.44 0.40 0.47 0.44 0.52 0.52 0.53 0.64 0.80 0.90 0.97 1.02 1.04 1.13 1.26 1.31 1.35 1.47 1.55 1.57 1.55 1.52 1.48 1.46 1.47 1.49 1.50 1.48 1.42 1.37 1.37 1.38 1.37 1.36 1.37 1.37 1.36 1.37 1.40 1.43 1.44 1.48 1.50 1.51 1.53 1.58 1.62 1.63 1.65 1.64 1.64 1.62 1.59 1.53 1.47 1.43 1.42 1.43 1.48 1.53 1.58 1.59 1.59 1.59 1.63 1.61 1.62
0.36 0.32 0.35 0.36 0.35 0.36 0.40 0.43 0.51 0.53 0.47 0.49 0.48 0.50 0.57 0.57 0.59 0.55 0.50 0.45 0.59 0.47 0.37 0.58 0.65 0.56 0.63 0.77 0.90 0.97 1.03 1.08 1.14 1.21 1.26 1.38 1.47 1.47 1.54 1.62 1.63 1.58 1.55 1.55 1.53 1.52 1.50 1.49 1.47 1.45 1.44 1.43 1.42 1.44 1.44 1.44 1.44 1.43 1.44 1.45 1.49 1.52 1.52 1.53 1.54 1.59 1.62 1.63 1.62 1.62 1.62 1.63 1.63 1.57 1.51 1.48 1.49 1.49 1.51 1.56 1.59 1.60 1.62 1.62 1.58 1.58
0.29 0.27 0.36 0.37 0.36 0.41 0.47 0.51 0.54 0.56 0.53 0.52 0.52 0.52 0.52 0.57 0.57 0.50 0.54 0.61 0.61 0.44 0.40 0.55 0.64 0.58 0.69 0.79 0.89 1.01 1.07 1.07 1.15 1.23 1.26 1.37 1.43 1.50 1.54 1.55 1.60 1.62 1.59 1.53 1.52 1.54 1.56 1.55 1.54 1.53 1.52 1.50 1.50 1.48 1.48 1.50 1.52 1.54 1.54 1.55 1.56 1.57 1.55 1.59 1.56 1.56 1.59 1.63 1.61 1.61 1.65 1.68 1.69 1.66 1.58 1.52 1.50 1.50 1.52 1.54 1.58 1.62 1.62 1.60 1.58 1.58
0.27 0.24 0.31 0.36 0.35 0.37 0.41 0.46 0.54 0.52 0.53 0.51 0.52 0.53 0.56 0.57 0.55 0.57 0.58 0.63 0.63 0.59 0.61 0.65 0.67 0.67 0.78 0.86 0.95 1.05 1.16 1.17 1.22 1.30 1.37 1.35 1.32 1.39 1.44 1.50 1.55 1.58 1.57 1.53 1.54 1.57 1.59 1.60 1.61 1.62 1.61 1.58 1.55 1.54 1.54 1.56 1.58 1.61 1.61 1.60 1.62 1.61 1.65 1.66 1.61 1.60 1.62 1.63 1.66 1.70 1.71 1.72 1.71 1.66 1.61 1.54 1.50 1.50 1.52 1.53 1.55 1.57 1.57 1.60 1.61 1.61
0.22 0.24 0.30 0.32 0.31 0.33 0.38 0.42 0.47 0.48 0.48 0.45 0.51 0.55 0.57 0.59 0.59 0.59 0.59 0.60 0.64 0.63 0.66 0.65 0.67 0.67 0.87 1.01 1.05 1.13 1.21 1.26 1.25 1.19 1.27 1.42 1.45 1.42 1.40 1.40 1.46 1.53 1.57 1.59 1.60 1.62 1.64 1.65 1.67 1.68 1.66 1.65 1.64 1.62 1.62 1.63 1.67 1.71 1.74 1.77 1.78 1.75 1.77 1.74 1.70 1.69 1.70 1.71 1.77 1.81 1.81 1.79 1.75 1.72 1.62 1.57 1.55 1.56 1.53 1.52 1.54 1.53 1.56 1.61 1.65 1.66
0.24 0.23 0.34 0.31 0.23 0.27 0.35 0.38 0.41 0.44 0.45 0.44 0.43 0.47 0.52 0.52 0.48 0.55 0.53 0.62 0.55 0.54 0.61 0.62 0.59 0.65 0.91 1.04 1.08 1.13 1.16 1.16 1.13 1.18 1.27 1.34 1.45 1.46 1.39 1.42 1.44 1.49 1.55 1.60 1.62 1.64 1.66 1.68 1.71 1.73 1.73 1.75 1.74 1.71 1.70 1.69 1.72 1.75 1.77 1.84 1.86 1.88 1.89 1.84 1.80 1.76 1.76 1.83 1.91 1.96 1.95 1.91 1.87 1.81 1.72 1.64 1.59 1.59 1.58 1.57 1.56 1.60 1.67 1.69 1.67 1.68
0.27 0.26 0.26 0.28 0.20 0.20 0.31 0.37 0.38 0.40 0.39 0.34 0.37 0.44 0.50 0.55 0.57 0.59 0.63 0.67 0.66 0.68 0.57 0.50 0.59 0.87 0.97 1.05 1.00 1.07 1.13 1.16 1.16 1.16 1.18 1.33 1.43 1.45 1.44 1.41 1.47 1.51 1.57 1.62 1.63 1.65 1.68 1.71 1.76 1.80 1.83 1.85 1.84 1.82 1.83 1.84 1.81 1.79 1.84 1.85 1.92 1.97 1.96 1.94 1.92 1.92 1.90 1.89 1.88 1.91 1.97 2.07 2.02 1.97 1.88 1.81 1.75 1.71 1.68 1.64 1.60 1.61 1.63 1.63 1.68 1.69
0.28 0.30 0.27 0.32 0.20 0.22 0.29 0.32 0.38 0.32 0.24 0.26 0.56 0.64 0.61 0.57 0.62 0.56 0.54 0.59 0.68 0.70 0.66 0.74 0.82 0.95 0.97 1.02 0.97 0.99 1.05 1.10 1.19 1.30 1.29 1.28 1.35 1.47 1.50 1.49 1.51 1.53 1.57 1.63 1.68 1.69 1.73 1.77 1.80 1.84 1.88 1.90 1.92 1.94 1.96 1.96 1.91 1.91 1.94 1.93 1.95 1.96 1.99 1.99 1.95 1.92 1.91 1.94 1.93 1.95 1.99 2.04 2.10 2.03 1.99 1.91 1.87 1.90 1.84 1.65 1.59 1.62 1.69 1.72 1.71 1.68
0.28 0.29 0.28 0.32 0.23 0.22 0.28 0.28 0.24 0.20 0.23 0.47 0.58 0.68 0.74 0.74 0.72 0.64 0.65 0.70 0.70 0.77 0.78 0.80 0.88 0.96 1.02 1.04 1.05 1.09 1.16 1.21 1.31 1.33 1.31 1.34 1.37 1.45 1.45 1.52 1.54 1.55 1.57 1.62 1.64 1.68 1.71 1.75 1.79 1.83 1.85 1.89 1.94 1.98 1.99 1.99 2.01 2.02 2.01 2.01 1.98 2.00 2.01 2.02 2.00 1.97 1.96 1.95 1.99 2.04 2.03 2.03 2.03 2.08 2.07 1.94 1.85 1.88 2.02 1.86 1.75 1.76 1.74 1.77 1.76 1.75
0.27 0.28 0.31 0.29 0.30 0.28 0.24 0.24 0.15 0.19 0.38 0.47 0.53 0.58 0.73 0.75 0.74 0.68 0.60 0.68 0.75 0.76 0.80 0.79 0.89 0.98 1.00 1.04 1.08 1.14 1.16 1.23 1.28 1.30 1.34 1.38 1.46 1.46 1.44 1.46 1.51 1.57 1.56 1.60 1.59 1.61 1.64 1.66 1.69 1.73 1.77 1.87 1.90 1.92 1.96 1.96 2.02 2.00 1.99 2.04 2.01 2.01 2.02 2.01 2.00 2.00 1.99 1.99 2.02 2.01 2.05 2.04 2.00 2.07 2.12 1.99 1.87 1.83 1.97 1.99 1.92 1.82 1.75 1.77 1.88 1.88
0.31 0.33 0.31 0.27 0.35 0.23 0.25 0.24 0.22 0.32 0.32 0.37 0.41 0.47 0.53 0.52 0.59 0.58 0.48 0.59 0.73 0.80 0.82 0.82 0.87 0.94 0.96 1.01 1.07 1.12 1.16 1.15 1.08 1.14 1.28 1.28 1.36 1.41 1.50 1.54 1.61 1.56 1.60 1.63 1.65 1.65 1.69 1.71 1.72 1.76 1.78 1.80 1.83 1.85 1.88 1.96 2.01 2.01 2.02 2.03 2.06 2.06 2.04 2.02 1.99 2.00 2.03 2.03 2.05 2.07 2.07 2.04 1.99 2.02 2.07 2.05 1.95 1.94 1.98 1.98 1.95 1.94 1.92 1.85 1.89 1.86
0.37 0.29 0.35 0.26 0.30 0.32 0.25 0.23 0.23 0.23 0.19 0.28 0.41 0.52 0.63 0.67 0.68 0.71 0.62 0.54 0.73 0.82 0.89 0.88 0.86 0.90 0.93 1.00 1.05 1.09 1.10 0.95 0.85 0.96 1.22 1.28 1.35 1.43 1.54 1.57 1.58 1.61 1.65 1.66 1.68 1.65 1.66 1.70 1.74 1.78 1.78 1.78 1.81 1.85 1.91 1.96 1.96 1.93 1.92 1.94 1.99 1.98 1.99 2.02 2.02 2.03 2.04 2.06 2.09 2.08 2.12 2.11 2.11 2.05 2.02 2.01 2.00 2.02 2.05 2.03 2.01 2.00 2.02 1.93 1.89 1.90
0.35 0.35 0.35 0.28 0.27 0.29 0.27 0.22 0.22 0.18 0.22 0.34 0.40 0.49 0.60 0.69 0.71 0.76 0.57 0.44 0.67 0.80 0.89 0.92 0.87 0.93 0.97 0.99 1.02 1.05 0.93 0.77 0.77 0.92 1.17 1.18 1.27 1.48 1.49 1.56 1.53 1.57 1.62 1.62 1.61 1.59 1.60 1.62 1.69 1.73 1.76 1.75 1.72 1.80 1.87 1.85 1.82 1.81 1.81 1.86 1.91 1.93 1.94 1.94 1.96 1.98 2.01 2.08 2.13 2.14 2.14 2.16 2.16 2.08 2.03 2.01 2.03 2.05 2.05 2.00 2.00 2.04 2.03 1.98 1.94 1.90
0.30 0.32 0.32 0.28 0.25 0.26 0.25 0.22 0.20 0.25 0.22 0.39 0.45 0.51 0.57 0.68 0.73 0.63 0.36 0.38 0.65 0.81 0.90 0.94 0.91 0.92 1.00 1.02 1.03 0.96 0.90 0.76 0.79 0.94 1.21 1.24 1.26 1.42 1.47 1.48 1.53 1.55 1.58 1.62 1.64 1.64 1.63 1.66 1.67 1.68 1.68 1.68 1.69 1.77 1.79 1.78 1.77 1.76 1.78 1.80 1.88 1.89 1.88 1.94 1.98 2.10 2.14 2.14 2.13 2.13 2.11 2.12 2.09 2.04 1.99 2.03 2.08 2.06 2.03 2.04 2.01 1.99 1.99 2.00 1.98 1.93
0.28 0.30 0.30 0.26 0.28 0.29 0.26 0.26 0.27 0.28 0.36 0.41 0.45 0.55 0.59 0.66 0.60 0.40 0.34 0.51 0.74 0.86 0.94 0.97 0.96 0.97 1.01 1.01 1.02 0.89 1.01 1.09 1.09 1.17 1.26 1.25 1.23 1.25 1.36 1.46 1.51 1.52 1.50 1.53 1.56 1.62 1.60 1.59 1.60 1.63 1.66 1.70 1.73 1.75 1.73 1.73 1.73 1.71 1.72 1.74 1.76 1.75 1.77 1.86 1.94 1.98 1.96 2.00 2.04 2.01 2.01 2.01 1.97 1.93 1.98 1.99 2.00 2.06 2.07 2.04 1.98 1.95 1.93 1.90 1.89 1.86
0.28 0.31 0.35 0.33 0.28 0.27 0.29 0.25 0.26 0.30 0.39 0.47 0.54 0.57 0.63 0.48 0.31 0.34 0.61 0.79 0.83 0.88 0.98 1.00 0.98 1.02 1.05 1.03 1.05 1.04 1.11 1.21 1.25 1.27 1.25 1.22 1.22 1.21 1.23 1.33 1.38 1.42 1.48 1.52 1.56 1.56 1.57 1.58 1.58 1.62 1.65 1.68 1.73 1.75 1.73 1.68 1.63 1.63 1.67 1.70 1.75 1.76 1.75 1.80 1.83 1.86 1.97 1.88 1.90 1.91 1.86 1.83 1.86 1.85 1.84 1.87 1.90 1.91 1.95 1.98 1.96 1.93 1.92 1.91 1.87 1.83
0.27 0.25 0.26 0.27 0.33 0.33 0.31 0.27 0.25 0.20 0.39 0.51 0.56 0.55 0.61 0.37 0.44 0.59 0.72 0.86 0.93 0.96 0.98 1.02 1.04 1.06 1.09 1.05 1.11 1.14 1.16 1.18 1.22 1.22 1.22 1.21 1.20 1.20 1.20 1.22 1.24 1.28 1.32 1.36 1.39 1.46 1.50 1.47 1.50 1.59 1.64 1.71 1.75 1.70 1.69 1.67 1.61 1.61 1.61 1.61 1.66 1.71 1.71 1.72 1.75 1.84 1.78 1.76 1.78 1.77 1.78 1.80 1.79 1.82 1.86 1.86 1.88 1.88 1.88 1.89 1.87 1.89 1.90 1.87 1.84 1.82
0.39 0.27 0.29 0.32 0.36 0.28 0.28 0.25 0.25 0.34 0.46 0.57 0.52 0.40 0.52 0.56 0.65 0.69 0.73 0.77 0.94 1.00 1.01 1.04 1.08 1.12 1.14 1.11 1.12 1.15 1.18 1.17 1.19 1.19 1.16 1.17 1.17 1.17 1.14 1.13 1.17 1.20 1.23 1.27 1.30 1.32 1.35 1.35 1.38 1.38 1.42 1.54 1.58 1.63 1.67 1.61 1.57 1.57 1.56 1.57 1.66 1.68 1.67 1.69 1.67 1.71 1.70 1.69 1.70 1.70 1.72 1.74 1.73 1.73 1.72 1.72 1.74 1.75 1.72 1.78 1.81 1.82 1.82 1.82 1.79 1.76
0.40 0.33 0.36 0.30 0.42 0.34 0.32 0.37 0.46 0.53 0.58 0.64 0.61 0.60 0.62 0.69 0.75 0.76 0.78 0.83 0.88 0.97 1.13 1.10 1.10 1.14 1.16 1.14 1.16 1.16 1.12 1.15 1.14 1.14 1.09 1.07 1.09 1.07 1.06 1.07 1.10 1.12 1.12 1.11 1.14 1.20 1.20 1.20 1.21 1.24 1.27 1.31 1.35 1.41 1.44 1.46 1.43 1.41 1.40 1.47 1.55 1.52 1.54 1.51 1.49 1.48 1.45 1.44 1.44 1.41 1.44 1.47 1.49 1.52 1.56 1.59 1.60 1.58 1.59 1.61 1.65 1.64 1.70 1.70 1.69 1.67
0.48 0.45 0.49 0.39 0.35 0.45 0.50 0.51 0.58 0.59 0.61 0.64 0.71 0.73 0.71 0.74 0.79 0.83 0.83 0.83 0.92 1.01 1.11 1.13 1.14 1.12 1.15 1.20 1.14 1.13 1.12 1.13 1.10 1.08 1.05 1.04 1.03 1.03 1.02 1.03 1.03 1.04 1.04 1.03 1.05 1.07 1.08 1.09 1.11 1.11 1.10 1.12 1.16 1.18 1.20 1.20 1.19 1.17 1.22 1.30 1.31 1.33 1.31 1.28 1.26 1.27 1.31 1.34 1.35 1.34 1.34 1.32 1.33 1.35 1.36 1.38 1.40 1.41 1.42 1.46 1.49 1.50 1.52 1.53 1.51 1.50
0.47 0.49 0.44 0.36 0.47 0.37 0.32 0.52 0.52 0.56 0.64 0.68 0.72 0.77 0.81 0.82 0.83 0.89 0.89 0.90 0.96 1.05 1.11 1.18 1.20 1.21 1.21 1.22 1.18 1.14 1.13 1.12 1.05 1.02 1.01 0.98 0.94 0.93 0.93 0.93 0.96 0.97 0.96 0.95 0.98 1.00 1.00 1.00 1.00 1.01 1.01 1.00 1.03 1.05 1.09 1.12 1.15 1.16 1.16 1.14 1.15 1.13 1.11 1.11 1.13 1.13 1.15 1.16 1.18 1.19 1.17 1.12 1.10 1.10 1.11 1.10 1.11 1.11 1.11 1.12 1.12 1.13 1.16 1.20 1.21 1.23
0.39 0.55 0.43 0.42 0.43 0.38 0.39 0.51 0.59 0.67 0.70 0.75 0.76 0.76 0.76 0.82 0.89 0.96 0.97 0.99 1.02 1.06 1.09 1.12 1.21 1.26 1.29 1.24 1.23 1.17 1.13 1.11 1.04 0.98 0.95 0.93 0.92 0.91 0.89 0.88 0.90 0.92 0.95 0.96 0.94 0.91 0.90 0.92 0.94 0.94 0.94 0.94 0.96 0.97 1.01 1.06 1.08 1.10 1.10 1.10 1.11 1.10 1.09 1.07 1.06 1.04 1.06 1.06 1.05 1.05 1.06 1.04 1.02 0.99 0.96 0.95 0.94 0.93 0.92 0.94 0.95 0.94 0.95 0.98 1.00 1.03
0.52 0.55 0.41 0.48 0.42 0.48 0.53 0.56 0.61 0.66 0.69 0.74 0.79 0.82 0.86 0.89 0.93 0.97 1.01 1.01 1.01 1.03 1.07 1.12 1.16 1.24 1.27 1.29 1.26 1.19 1.12 1.09 1.03 0.98 0.94 0.94 0.93 0.91 0.91 0.91 0.90 0.90 0.91 0.89 0.88 0.85 0.83 0.84 0.85 0.87 0.89 0.93 0.97 0.99 1.01 1.02 1.06 1.08 1.08 1.10 1.09 1.07 1.03 1.02 1.02 1.03 1.02 1.03 1.03 1.03 1.03 1.01 1.00 0.98 0.96 0.94 0.94 0.94 0.94 0.93 0.92 0.92 0.91 0.94 0.95 0.94
0.49 0.42 0.50 0.45 0.36 0.35 0.37 0.46 0.58 0.47 0.48 0.61 0.68 0.75 0.83 0.92 0.95 0.92 0.94 0.94 0.97 0.97 1.01 1.05 1.17 1.25 1.24 1.27 1.28 1.19 1.09 1.04 1.02 1.02 0.99 1.01 1.01 1.00 0.98 0.94 0.92 0.91 0.90 0.92 0.93 0.93 0.92 0.92 0.91 0.91 0.92 0.94 0.96 0.95 0.93 0.93 0.95 0.99 1.04 1.05 1.05 1.04 1.00 1.00 0.99 0.99 0.98 0.99 0.98 0.98 0.97 0.96 0.95 0.95 0.95 0.94 0.95 0.96 0.96 0.98 0.97 0.96 0.93 0.91 0.93 0.92
0.46 0.47 0.46 0.39 0.34 0.34 0.46 0.55 0.65 0.61 0.57 0.61 0.68 0.78 0.87 0.92 0.92 0.90 0.90 0.88 0.90 0.96 1.04 1.12 1.16 1.18 1.18 1.22 1.28 1.25 1.17 1.14 1.12 1.12 1.09 1.08 1.09 1.11 1.09 1.04 0.97 0.94 0.92 0.93 0.92 0.93 0.94 0.95 0.95 0.93 0.92 0.94 0.97 0.97 0.96 0.96 0.97 0.98 0.98 0.99 0.99 0.99 0.98 0.98 0.97 0.97 0.98 0.98 0.97 0.95 0.95 0.95 0.94 0.95 0.93 0.93 0.92 0.93 0.91 0.91 0.95 0.96 0.96 0.95 0.93 0.92
Wind_Speed
10 12 13 14 14 15 16 16 15 13 12 11 10 10 10 9 8 8 8 8 8 9 10 12 14 14 17 18 18 19 20 19 18 18 17 17 16 15 15 14 14 14 14 13 13 13 13 13 13 13 13 13 13 13 13 13 12 12 12 12 12 12 12 12 11 11 11 11 11 11 11 11 10 10 10 10 10 9 9 9 9 8 8 8 8 8
10 11 12 14 15 16 17 17 17 16 15 14 12 11 10 10 9 8 8 8 8 8 8 10 12 14 17 18 18 19 20 20 20 19 19 18 17 16 16 16 15 15 14 14 14 14 14 14 14 14 14 14 13 13 13 13 13 12 12 12 12 12 12 11 11 11 11 11 11 11 11 10 10 10 9 9 9 9 9 9 8 8 7 7 7 7
11 12 12 14 15 16 17 17 17 17 16 15 13 12 11 10 9 8 8 8 8 8 8 9 12 13 16 18 17 19 20 20 20 20 20 19 19 17 17 17 16 15 14 14 15 14 14 14 14 14 14 14 14 14 14 13 13 13 12 12 12 12 12 11 11 11 11 11 11 11 10 10 10 10 9 9 9 9 8 8 7 7 7 7 7 7
10 11 12 13 14 15 16 17 18 17 17 16 14 13 12 11 10 9 8 8 8 9 8 9 11 12 14 16 17 18 19 19 18 19 19 19 20 19 18 18 17 16 16 15 15 15 15 14 15 15 14 14 14 14 14 14 14 13 13 12 12 12 12 11 11 11 11 11 11 10 10 10 10 9 9 8 8 8 8 7 7 7 7 7 7 7
12 11 11 12 13 14 15 17 18 18 18 17 16 15 13 13 12 10 9 8 8 9 9 9 10 12 14 15 18 19 18 18 18 18 19 19 20 20 18 19 19 18 17 16 16 15 15 15 15 15 15 15 15 15 15 15 14 13 13 13 13 12 12 12 11 11 11 11 11 10 10 10 9 9 9 8 8 8 7 7 7 6 6 7 7 7
13 12 12 12 13 14 15 17 18 18 18 18 18 17 15 14 12 11 10 10 9 9 9 10 9 11 14 15 18 21 20 20 20 20 21 20 20 20 19 20 20 19 18 17 16 16 16 16 15 15 15 15 15 15 15 15 15 14 14 13 13 13 12 12 12 12 11 11 10 10 10 10 9 9 9 9 8 8 7 7 7 6 6 6 6 6
11 11 12 13 13 14 15 17 18 18 18 18 17 17 15 14 13 12 12 11 10 9 9 11 10 9 11 14 17 22 23 22 22 22 22 20 20 21 21 20 21 20 19 18 17 17 17 16 16 16 15 15 15 15 15 15 15 14 14 14 14 13 13 12 12 12 12 11 11 10 10 10 9 9 9 9 8 8 7 7 7 6 6 6 6 6
9 10 11 12 13 13 14 16 17 19 19 17 16 16 16 14 13 12 12 11 10 10 10 11 11 10 11 12 14 21 24 24 25 24 22 21 21 21 21 21 21 21 20 19 18 18 18 17 17 16 16 16 15 15 16 16 15 15 14 14 14 13 13 13 12 12 12 11 11 10 10 9 9 9 9 8 8 7 7 7 6 6 6 6 6 6
8 10 11 12 12 13 14 14 16 19 18 16 16 16 15 14 13 13 12 12 10 10 11 12 12 11 11 12 11 17 24 26 26 26 24 22 22 21 22 22 22 22 22 20 19 19 19 18 17 17 16 16 16 16 16 16 15 15 15 15 14 14 13 13 13 13 12 11 11 10 10 9 9 9 8 8 8 7 7 7 6 6 6 6 6 6
8 9 10 11 12 12 12 12 16 19 17 16 17 15 14 13 12 12 12 11 10 11 12 12 13 12 11 12 12 14 22 27 26 26 26 24 22 22 22 23 23 23 22 21 20 20 20 19 18 17 17 17 16 16 16 16 15 15 15 15 15 14 14 14 13 13 12 12 11 10 10 9 9 8 8 8 7 7 7 7 6 6 6 6 5 5
8 8 9 10 11 11 10 11 14 17 16 17 17 15 15 13 12 12 12 11 11 11 11 10 13 13 11 12 14 13 16 24 26 25 25 26 23 22 23 23 24 24 23 22 22 21 21 20 19 18 18 18 17 16 17 16 16 15 15 15 15 15 14 14 14 13 13 12 11 11 10 10 9 8 8 8 7 7 7 7 7 6 6 5 5 5
7 7 8 9 9 9 9 9 12 15 17 17 16 16 15 13 12 13 12 11 12 11 10 9 11 13 12 11 13 14 12 19 26 26 26 27 25 23 23 24 25 25 24 23 22 22 21 21 20 19 19 18 18 17 17 17 16 15 15 15 15 15 15 14 14 13 13 13 12 11 11 10 9 8 8 8 8 7 7 7 7 6 6 6 5 5
5 6 7 7 8 9 9 9 11 14 16 16 16 17 15 13 13 13 12 12 12 12 10 10 10 12 14 12 12 14 13 15 24 28 28 29 28 25 24 25 25 25 25 24 23 23 22 22 21 21 20 19 19 18 18 17 17 16 15 16 16 15 15 15 14 14 13 13 12 12 11 11 10 9 9 8 8 8 7 7 7 7 6 6 6 6
4 5 5 6 8 10 10 10 12 13 16 17 16 17 15 13 13 13 12 12 12 12 11 11 11 11 12 12 12 13 12 13 20 27 31 30 29 27 25 26 26 26 25 24 24 24 23 23 22 21 21 20 19 19 18 18 17 16 16 16 16 16 15 15 15 14 14 13 13 12 12 11 10 10 9 9 8 8 8 7 7 7 6 6 6 6
4 5 4 5 6 9 11 10 11 11 14 16 15 15 15 14 13 13 12 12 11 11 11 11 11 11 10 10 10 11 10 11 15 23 30 30 28 28 27 26 27 26 25 24 24 24 24 24 23 22 21 21 20 20 19 18 18 17 17 17 17 16 16 16 15 15 14 14 13 13 12 12 11 10 10 9 9 8 8 8 7 7 7 6 6 6
5 4 4 5 6 8 10 10 10 10 12 14 14 15 15 14 13 12 12 12 11 11 12 12 12 12 11 10 11 11 9 10 11 17 27 29 27 28 27 27 27 26 26 25 25 25 25 25 24 23 22 21 21 20 20 19 18 18 18 18 18 17 17 16 16 15 15 14 14 13 13 12 12 11 10 10 9 9 9 8 8 8 7 7 6 6
5 4 5 6 5 7 10 11 11 11 11 13 14 15 14 13 13 12 11 11 11 12 12 12 12 12 11 11 11 11 11 11 10 13 23 29 28 28 28 28 28 27 26 26 25 25 25 25 25 24 23 22 22 21 20 20 19 19 19 18 18 18 17 17 17 16 15 15 14 14 14 13 12 12 11 11 10 10 9 9 8 8 8 8 7 7
5 4 5 5 4 5 8 10 11 11 11 12 13 13 14 14 13 12 12 11 12 13 11 12 13 12 11 10 10 11 12 12 11 12 19 27 30 29 29 28 28 28 27 26 26 26 26 26 26 25 24 23 22 22 21 21 20 20 19 19 19 18 18 17 17 16 16 15 15 15 15 14 13 13 12 11 11 10 10 9 9 9 8 8 8 8
6 6 5 5 5 4 6 9 10 10 10 11 11 12 13 14 14 12 12 11 11 12 11 11 12 12 12 11 10 11 13 12 11 11 16 25 30 31 30 29 29 28 27 27 27 26 26 26 26 25 24 24 23 22 21 21 20 20 20 19 19 19 18 18 17 17 16 16 15 15 15 15 14 13 13 12 11 11 11 11 10 10 9 9 9 8
6 7 6 5 5 6 6 8 10 11 10 11 11 11 12 13 13 13 12 12 11 11 11 10 10 10 10 9 9 11 12 12 12 11 13 23 30 31 30 29 28 27 27 27 27 27 27 27 26 26 25 24 24 23 22 21 21 21 20 19 19 19 19 18 18 17 17 17 16 16 16 15 15 14 14 13 13 12 12 11 11 11 11 10 9 9
7 7 7 6 6 6 6 6 9 11 11 12 11 11 11 11 12 13 13 13 13 11 10 11 11 10 8 8 9 10 11 12 13 12 12 19 27 30 30 30 28 27 27 27 27 27 27 27 27 26 26 25 24 24 23 22 22 21 21 20 20 19 19 19 19 18 18 17 17 17 16 16 16 15 15 14 14 13 13 12 12 12 12 11 11 10
7 8 8 8 6 6 6 6 8 10 11 11 11 11 11 12 12 11 11 12 14 13 11 11 12 10 8 8 9 9 10 11 12 12 12 15 23 29 31 30 29 28 28 28 28 28 27 27 27 26 26 25 25 24 24 23 23 22 22 21 20 20 19 19 19 19 19 18 18 18 17 17 16 16 15 15 14 14 14 13 13 12 12 12 12 11
7 8 8 9 8 7 7 7 7 9 10 9 9 10 11 12 13 12 10 10 12 13 12 11 11 9 8 8 8 8 8 9 10 11 11 13 19 26 29 29 29 28 28 28 28 28 27 27 27 26 26 26 25 25 25 24 23 23 22 22 21 21 20 20 20 20 19 19 19 19 18 17 17 17 16 16 15 15 14 14 14 13 13 13 12 12
7 8 9 9 9 9 9 8 8 8 9 8 7 8 9 11 13 13 11 9 9 11 11 11 10 8 7 7 7 6 6 6 7 8 9 10 16 23 27 28 28 28 28 28 28 28 28 28 27 27 27 26 26 25 25 25 24 24 23 23 22 22 21 21 20 20 20 20 20 19 18 18 18 17 17 16 16 15 15 15 14 14 14 13 13 12
7 8 9 9 9 10 11 11 10 10 9 8 7 7 8 9 11 12 12 11 10 10 10 11 10 7 6 6 6 5 4 4 4 6 7 9 14 20 24 26 27 28 29 29 28 28 28 28 28 27 27 26 26 26 26 25 25 25 24 24 24 23 22 22 21 21 21 21 20 19 19 19 19 18 18 17 17 16 16 15 15 15 14 14 14 13
6 6 8 10 10 11 13 13 12 12 11 10 8 8 8 8 9 11 11 12 11 9 9 11 10 7 6 6 5 5 4 3 3 4 5 7 13 19 22 24 26 27 28 29 28 28 28 28 28 27 27 27 27 26 26 26 26 25 25 25 25 24 23 22 22 21 21 21 21 20 20 19 19 19 19 19 18 17 17 16 16 16 15 15 15 14
6 6 7 10 11 12 12 12 12 12 12 11 10 9 8 8 8 9 10 12 11 9 9 10 9 9 8 6 6 5 4 3 3 3 4 6 11 16 20 22 23 25 27 28 27 27 28 28 28 28 27 27 27 27 26 26 26 26 25 26 25 25 24 23 23 22 22 22 21 21 21 20 20 20 20 20 19 19 18 17 17 17 16 16 16 15
6 7 7 9 11 11 11 11 11 12 13 12 12 10 10 9 8 8 9 10 11 11 10 8 9 10 8 7 7 6 5 4 3 2 2 5 9 14 17 20 22 23 25 26 26 27 27 27 27 27 27 27 27 27 27 26 26 26 26 26 25 25 25 24 24 23 23 22 22 22 22 21 21 21 21 20 20 20 19 19 18 17 17 17 17 17
6 7 7 8 9 10 10 10 11 12 13 13 13 12 11 10 9 8 9 10 11 12 11 10 10 10 8 7 7 7 7 6 5 3 2 3 7 10 14 17 20 23 25 26 26 26 26 26 26 27 27 27 27 27 27 26 26 26 26 26 26 26 26 25 25 24 23 23 23 23 23 22 22 22 21 21 21 21 20 20 19 19 18 18 18 17
7 7 7 8 9 9 10 10 12 13 14 14 13 13 13 11 10 10 10 10 11 12 12 11 11 10 9 8 8 7 8 8 7 5 3 2 3 7 10 13 16 20 24 25 25 24 24 25 25 26 26 27 27 27 27 27 27 27 27 27 27 27 26 26 25 25 24 24 23 23 23 23 23 22 22 22 22 21 21 21 20 19 19 19 18 18
8 8 7 8 9 10 10 10 12 14 15 16 15 14 14 13 12 11 11 11 11 11 11 12 12 10 9 9 8 8 9 8 7 6 5 3 3 4 7 9 12 16 20 23 23 23 23 24 24 25 26 27 27 27 27 27 27 28 28 28 28 28 27 27 27 26 26 25 24 24 23 23 23 23 23 22 22 22 22 21 21 20 20 19 19 19
8 8 8 8 9 10 10 10 11 12 15 17 18 17 16 16 15 14 13 13 12 12 11 12 13 11 10 10 9 9 10 9 8 7 6 4 4 4 5 6 10 13 17 19 20 20 20 22 23 24 25 26 27 27 27 28 28 28 29 29 29 29 28 28 28 28 27 26 25 24 24 24 23 23 23 22 22 22 22 22 21 20 20 19 19 19
8 8 8 8 9 10 9 10 10 11 13 16 17 17 17 17 17 16 15 14 14 12 12 13 13 12 11 10 10 10 10 10 10 9 7 6 5 5 5 6 8 11 13 15 16 16 16 18 19 21 22 23 24 25 26 27 27 28 29 29 29 29 29 29 29 28 28 27 26 26 25 25 25 24 23 22 22 22 22 22 21 20 20 20 19 19
7 7 7 8 9 9 9 10 11 12 12 12 12 14 16 17 18 17 16 16 15 13 13 12 12 12 11 10 11 11 10 9 10 9 8 6 6 6 6 6 7 8 10 11 12 13 13 14 16 17 18 20 21 22 23 24 25 26 26 27 28 28 29 30 30 30 30 29 29 28 27 27 26 25 24 23 22 21 21 21 21 21 21 20 20 20
7 6 6 7 8 9 9 10 12 12 11 11 11 12 14 16 17 18 18 17 17 15 13 13 13 13 12 11 11 10 9 8 8 7 7 6 6 6 7 7 8 9 9 9 9 10 10 12 13 14 15 17 18 19 20 21 22 23 24 25 26 27 28 29 31 32 32 31 31 30 29 28 27 26 25 24 23 22 21 21 21 21 21 20 21 21
7 7 7 7 7 8 9 10 11 11 10 11 12 12 13 14 16 17 18 19 18 17 15 14 13 14 13 12 12 11 10 9 8 7 7 7 6 6 7 8 9 10 10 10 9 8 8 9 10 12 13 15 16 16 17 18 19 20 22 23 25 26 27 29 30 31 32 33 32 32 31 29 29 28 26 25 25 23 22 21 21 21 21 21 21 21
8 7 7 7 7 7 8 9 11 11 11 11 12 12 13 14 15 15 17 18 19 18 16 14 14 14 14 13 13 12 11 11 9 8 7 7 6 6 7 8 9 9 10 10 9 9 8 8 9 10 11 12 13 14 15 16 17 18 19 20 22 24 26 27 28 29 31 32 33 33 32 30 29 28 26 24 24 24 23 22 21 21 21 21 21 21
8 8 8 8 8 7 8 9 10 11 10 10 10 11 12 13 14 15 16 17 18 19 17 15 14 15 15 14 13 13 12 11 10 8 8 7 6 6 6 7 8 8 8 9 8 8 8 8 8 8 8 9 9 10 12 13 13 14 14 14 16 18 20 22 24 26 28 29 30 31 32 30 29 28 26 24 24 24 23 23 22 21 21 21 21 22
8 8 8 9 8 8 8 9 9 10 10 10 10 10 11 12 13 14 15 16 17 18 18 16 15 15 16 15 14 14 13 12 10 9 9 8 7 7 6 5 6 7 7 7 7 7 7 7 7 7 8 8 8 8 9 10 10 10 9 9 10 11 12 13 15 18 20 22 24 26 27 28 28 27 26 25 24 24 23 23 22 21 21 21 21 21
8 8 9 10 10 9 10 10 10 11 11 10 11 11 11 12 12 13 14 14 15 18 19 17 17 16 16 15 15 15 14 13 11 11 10 8 8 8 6 4 5 6 7 6 6 6 6 6 6 7 7 7 7 8 8 8 8 8 7 7 7 7 7 7 9 10 12 15 18 19 20 22 23 24 25 24 21 20 20 21 21 20 20 20 20 20
9 9 10 11 10 10 11 11 11 11 10 11 11 11 11 12 13 14 14 12 13 17 19 18 18 17 16 15 14 15 14 13 12 11 11 9 8 8 7 6 5 5 6 6 6 6 6 6 6 6 6 6 7 7 7 7 7 7 6 6 6 5 5 5 6 6 7 9 12 14 14 15 16 17 19 21 20 19 18 19 19 19 19 19 19 19
9 9 9 10 10 10 11 11 11 11 10 9 10 11 12 14 14 14 14 13 14 16 18 18 19 18 16 15 14 14 14 13 12 12 12 10 9 7 7 7 6 5 5 6 6 6 6 6 5 5 5 6 6 7 7 7 7 7 6 6 5 5 4 4 4 5 6 7 8 9 9 9 10 11 12 14 15 16 16 16 16 17 17 17 17 17
9 9 9 9 9 9 10 10 10 10 9 8 9 11 13 14 14 13 14 14 15 16 17 18 19 18 17 15 14 15 15 13 13 13 12 11 9 8 7 7 7 6 6 6 7 7 6 6 6 6 5 5 5 5 6 6 6 6 6 6 5 5 4 4 5 5 6 6 7 7 7 6 7 8 8 9 10 11 12 13 13 13 14 14 15 15
9 9 9 9 9 9 9 9 9 9 9 9 10 11 12 13 14 15 15 15 16 17 17 17 18 19 18 17 16 16 15 14 14 14 13 11 9 8 8 7 7 6 6 6 7 7 7 8 8 7 6 5 4 4 5 5 5 6 6 6 6 5 4 5 5 5 5 5 5 6 6 6 6 6 7 7 8 9 10 10 11 12 13 13 14 14
9 9 9 9 9 10 10 10 10 10 10 11 12 12 12 13 14 15 16 16 16 18 18 17 18 19 19 19 18 17 16 15 14 14 14 12 10 9 8 7 6 6 6 7 7 7 7 8 8 8 7 6 5 5 5 5 5 5 5 6 6 5 5 5 5 5 5 5 5 5 6 6 6 6 6 7 7 8 9 9 10 11 11 12 12 13
9 9 9 9 9 9 10 10 10 11 11 12 12 12 13 13 14 14 15 16 16 18 18 18 18 19 19 20 19 18 17 16 15 15 14 13 12 11 10 8 7 7 6 7 7 6 6 7 7 7 7 6 6 5 5 4 4 4 4 5 6 5 5 5 5 5 4 4 4 5 5 6 6 6 6 7 7 8 8 9 9 10 11 11 12 12
9 10 9 9 9 9 10 10 10 11 11 11 11 11 12 12 13 13 14 14 15 17 17 17 18 20 21 20 19 19 19 18 16 15 15 14 14 13 12 10 9 8 7 7 6 6 6 6 6 6 6 6 6 5 4 3 3 3 4 5 5 5 5 4 4 4 5 5 5 6 6 6 6 7 7 8 8 8 9 9 9 10 11 11 12 12
10 10 9 9 8 9 9 9 10 11 11 10 10 10 11 11 12 12 13 14 14 16 17 17 17 19 20 20 20 20 19 19 18 16 15 15 14 14 13 12 11 10 9 8 7 7 6 6 6 6 6 5 5 4 4 3 3 3 3 4 4 5 4 4 4 4 4 5 6 6 7 7 7 8 8 9 9 9 9 10 10 10 11 12 12 13
9 9 8 7 7 8 8 9 9 10 9 9 9 10 10 11 12 12 13 14 15 16 17 17 17 17 18 18 19 20 20 19 18 17 16 15 15 14 14 13 12 11 10 9 9 8 7 6 6 6 5 5 5 4 3 3 3 3 3 4 4 5 4 4 5 5 5 5 6 6 7 8 8 9 9 10 10 10 10 11 11 12 13 13 14 14
9 9 8 7 7 8 7 8 8 8 7 8 8 9 10 11 12 12 13 13 14 15 16 17 17 17 17 16 17 19 20 19 18 17 16 15 15 14 14 13 12 12 11 10 10 9 7 7 6 6 5 5 5 4 4 4 4 4 4 4 5 5 5 5 6 6 6 7 7 7 8 9 9 10 11 11 11 12 12 13 13 14 14 15 16 16
10 9 8 7 7 7 6 7 7 6 5 5 6 7 8 10 11 12 12 13 13 14 15 16 17 18 18 17 17 17 19 19 18 17 16 15 15 14 13 13 12 12 11 10 10 9 8 7 7 6 6 6 5 5 5 4 4 5 5 6 6 6 7 7 8 8 9 9 9 10 10 11 11 12 13 13 14 14 15 15 16 16 17 17 17 18
Wind_Direction
224 222 222 223 223 221 220 223 225 227 230 236 240 238 238 244 247 248 245 240 234 232 227 222 221 217 208 205 203 198 197 198 195 191 191 189 187 188 188 187 187 190 190 186 183 180 176 173 172 170 168 167 165 164 162 160 159 157 155 153 152 152 152 149 147 146 145 145 143 143 142 140 136 134 133 133 132 130 128 129 131 135 136 138 141 142
226 225 225 226 225 222 221 222 227 231 236 240 241 239 237 239 245 250 245 236 231 232 230 223 223 218 208 205 204 199 198 198 196 193 193 192 190 190 189 190 190 190 187 185 184 181 178 176 174 173 171 170 169 167 167 165 163 161 158 157 156 155 155 152 150 148 148 147 147 145 144 143 140 138 136 134 134 132 129 129 131 134 137 139 142 144
231 231 230 229 225 223 223 224 225 228 233 235 234 235 238 238 241 247 243 234 228 229 229 223 224 219 207 205 206 202 200 200 198 196 196 193 192 191 190 191 192 188 186 186 185 182 180 178 176 175 175 175 174 172 171 170 167 165 163 162 160 159 158 155 153 152 151 150 149 147 146 145 142 140 138 136 135 134 131 131 133 135 137 140 142 143
235 235 232 229 224 223 226 227 226 228 229 229 230 234 238 235 238 246 241 235 230 227 231 227 225 218 208 208 208 205 203 201 198 198 197 196 195 194 193 194 193 190 188 186 184 182 181 180 178 178 178 177 176 175 174 173 171 170 169 167 165 164 162 159 157 156 154 152 151 149 148 147 144 142 141 141 140 139 137 136 137 138 139 140 140 141
240 237 232 229 228 229 230 229 228 231 231 229 229 233 238 234 237 243 237 234 232 227 230 227 225 220 213 213 209 205 206 204 200 198 198 198 198 197 195 196 196 194 192 188 185 183 182 182 181 179 180 179 178 178 177 176 175 173 173 171 169 168 167 163 162 160 157 154 153 152 151 149 147 145 145 146 146 144 143 141 140 141 141 142 142 141
245 240 233 233 234 235 234 232 230 231 233 232 229 230 236 233 230 231 228 231 234 231 228 223 228 225 214 217 212 204 206 207 203 201 200 198 198 199 198 197 198 197 195 192 189 187 184 184 184 181 181 181 180 180 179 178 178 177 175 174 172 170 169 168 165 163 161 159 158 157 155 153 152 151 152 152 151 148 146 144 143 145 145 145 145 145
249 242 238 237 237 235 235 234 230 228 232 233 229 227 228 227 225 224 226 232 235 233 231 227 233 232 220 223 217 206 207 209 205 204 203 199 198 200 200 199 199 199 197 195 193 190 188 187 185 183 183 183 183 182 180 180 180 179 178 177 175 173 171 171 169 167 166 165 164 164 162 160 158 159 159 158 156 152 150 149 148 148 148 148 149 150
245 241 240 239 238 237 237 235 227 224 229 230 228 224 221 223 224 224 227 235 237 235 236 231 231 237 233 229 217 208 210 210 207 206 204 202 200 201 202 201 200 200 198 195 194 193 191 189 186 186 186 185 185 184 181 180 180 180 180 179 178 176 174 174 173 172 172 171 171 170 169 167 167 167 166 164 161 159 157 157 156 152 151 151 151 153
244 241 238 235 238 239 238 237 224 219 225 226 222 219 219 223 224 225 230 234 237 238 238 230 224 233 237 227 217 212 213 212 208 207 206 204 202 201 202 203 202 201 199 197 196 195 194 192 189 188 188 187 186 185 183 181 181 181 181 181 180 179 178 177 177 177 178 177 176 176 175 174 174 174 172 170 168 167 166 166 165 161 159 157 156 157
253 248 241 234 239 242 237 234 223 217 220 217 211 211 216 220 222 225 229 230 233 238 241 232 220 228 237 227 219 217 215 213 210 208 208 206 203 202 203 203 203 202 200 199 198 196 196 194 192 191 191 190 187 186 185 183 182 182 182 183 183 181 180 180 181 182 182 182 181 181 181 181 180 179 177 176 174 173 172 173 173 171 169 166 165 164
256 246 243 239 240 241 234 229 221 213 207 205 205 208 214 217 220 223 226 230 232 235 241 237 222 225 239 234 224 224 220 213 211 209 208 207 205 203 203 203 203 202 200 199 199 197 196 196 194 193 193 193 190 187 186 186 185 184 184 184 184 183 183 183 184 186 186 186 186 186 186 186 186 184 183 182 180 179 179 179 179 179 178 176 176 174
256 239 240 242 238 232 226 223 215 203 199 206 211 212 215 219 222 223 225 227 229 232 238 238 227 226 236 241 232 235 231 213 210 210 207 208 206 203 204 204 202 202 200 199 199 198 197 196 196 196 195 195 193 190 188 189 188 187 186 186 186 186 186 186 187 189 190 190 190 190 190 191 190 189 188 188 188 188 187 186 185 185 185 185 185 184
251 240 243 241 232 223 217 211 209 206 207 212 213 212 216 221 223 225 225 225 228 232 235 234 230 231 238 244 237 234 236 220 212 209 206 207 207 204 203 203 202 201 200 199 199 199 198 198 197 197 197 196 195 194 192 191 191 189 189 189 189 189 189 189 190 191 192 193 193 193 193 194 194 194 194 194 195 196 196 194 193 192 191 190 191 193
237 239 243 236 229 225 221 212 209 213 213 212 212 212 215 217 222 224 222 227 232 232 232 230 230 237 243 245 236 227 229 225 215 208 205 206 206 204 203 203 202 201 199 200 200 199 200 200 199 199 198 197 197 197 196 194 193 192 191 192 192 193 192 192 192 193 194 196 196 196 197 198 198 199 199 200 200 201 202 202 201 201 199 197 197 198
242 242 244 244 237 226 225 221 215 216 213 212 215 216 216 216 221 224 221 225 232 231 229 225 228 236 237 240 239 229 222 220 215 208 206 206 205 204 204 202 201 200 200 201 201 201 201 201 201 200 200 199 199 199 198 197 196 194 194 195 196 196 196 196 196 196 198 199 199 200 201 201 202 203 205 206 205 206 208 208 207 208 208 207 206 205
248 244 249 259 250 227 223 219 215 216 211 212 216 218 219 219 222 226 225 225 229 231 228 225 231 238 238 244 244 236 227 221 218 209 206 207 205 203 203 203 201 200 201 203 203 202 202 202 202 202 202 201 201 201 200 199 198 197 197 197 198 199 200 200 201 201 202 203 204 204 203 204 204 205 208 209 210 212 213 213 212 213 214 214 214 213
249 242 251 260 248 232 228 217 213 216 213 211 215 217 218 220 223 225 226 225 227 231 229 225 233 241 243 246 239 231 232 229 227 215 207 206 205 203 203 203 202 202 202 204 204 204 204 203 203 204 204 203 203 203 202 202 201 201 200 200 200 202 203 204 205 205 206 207 208 207 207 207 207 208 210 212 213 214 215 215 216 217 217 217 217 217
251 244 252 258 252 243 233 216 210 218 220 215 215 217 217 218 222 225 225 225 227 233 232 226 234 242 242 244 239 231 232 231 231 225 211 207 206 206 206 205 204 205 204 205 206 205 205 204 203 204 205 204 205 205 205 205 205 205 205 204 204 204 205 206 207 208 209 211 212 211 210 210 211 212 213 214 215 215 216 217 218 219 220 221 221 220
249 246 244 247 255 252 225 209 206 213 222 220 216 219 220 219 221 224 226 229 230 235 235 228 235 243 240 242 244 236 234 233 232 231 218 209 207 206 206 205 205 206 206 206 205 205 205 205 205 205 205 206 206 207 207 207 208 209 209 208 208 208 209 210 210 210 211 212 214 214 214 214 215 216 217 217 218 218 218 219 220 221 223 224 225 226
249 248 243 239 245 241 224 216 214 211 214 217 214 219 224 223 224 224 226 231 234 238 241 237 238 240 239 246 252 247 241 234 231 234 224 213 208 205 204 205 205 205 206 205 204 204 205 206 206 207 207 207 207 208 209 209 209 211 211 212 212 212 213 213 213 213 214 214 215 216 216 217 218 220 221 221 220 221 222 223 223 224 225 226 227 229
248 246 245 243 238 233 228 228 225 217 214 215 214 218 223 221 221 223 227 233 237 240 242 243 245 243 242 250 256 255 252 240 232 234 229 214 208 205 204 205 205 206 206 205 204 205 205 207 208 209 209 209 209 210 210 210 211 212 213 214 215 215 215 216 216 217 217 217 217 217 218 219 221 222 223 223 223 223 224 225 225 226 227 228 229 230
249 245 247 244 236 226 221 224 227 223 218 217 219 224 226 223 219 221 228 232 234 236 238 244 250 249 245 250 256 256 255 247 236 232 229 216 207 204 204 205 206 207 207 206 206 207 207 208 209 210 211 211 211 211 211 212 213 214 214 215 216 217 218 219 219 220 220 220 220 220 221 222 222 224 224 225 225 225 226 226 227 228 229 230 231 231
250 246 247 243 237 231 225 221 219 216 212 212 220 227 229 226 222 219 222 227 229 231 233 240 246 244 242 248 254 254 252 250 242 234 229 216 206 203 204 205 206 208 208 208 209 209 210 210 210 211 211 212 213 213 213 214 214 215 216 216 217 218 220 221 222 222 223 223 223 223 223 224 225 225 225 226 227 227 227 227 228 229 230 231 232 232
253 247 245 243 239 233 228 220 212 210 210 209 217 224 225 226 224 221 222 229 233 230 229 234 238 237 241 247 247 247 249 252 250 245 236 219 207 204 204 206 208 208 209 210 211 211 212 212 212 212 212 213 214 214 214 215 216 217 217 218 219 220 221 223 224 224 224 224 225 226 226 226 227 227 227 227 227 228 228 229 229 230 231 231 232 233
258 249 242 240 234 223 218 217 214 215 218 218 219 223 228 230 227 223 224 227 233 234 230 233 235 235 240 243 239 242 250 256 255 245 234 221 210 206 205 207 208 209 210 211 211 212 213 213 213 213 214 215 216 216 216 217 218 218 219 220 221 221 223 224 225 225 225 225 226 227 228 228 229 229 229 229 228 228 229 230 231 231 232 232 233 233
263 254 243 238 236 228 223 224 221 218 220 223 223 222 228 233 229 226 223 221 226 233 229 229 233 237 240 242 241 245 253 260 256 241 230 218 208 205 206 207 208 210 211 212 212 212 213 213 214 215 215 216 217 218 219 219 219 220 221 222 223 223 224 225 226 227 227 227 227 228 229 230 230 230 230 230 230 229 229 230 231 232 233 233 234 234
268 261 248 241 242 242 239 233 225 221 221 222 224 223 224 229 230 228 225 223 229 237 231 229 239 245 245 245 245 248 252 251 250 244 232 217 204 202 205 208 209 210 210 211 212 212 213 214 215 216 217 218 219 220 221 221 222 222 223 224 226 226 225 226 227 228 228 229 229 230 231 231 232 232 231 231 231 230 230 231 232 233 234 235 236 236
266 259 249 241 243 245 241 234 229 228 225 223 225 226 223 226 230 230 230 232 235 236 233 236 245 246 244 245 245 244 243 240 236 222 206 207 203 201 204 208 210 211 210 210 211 212 213 214 215 217 218 219 220 221 223 224 224 225 225 226 228 228 228 227 227 228 229 230 230 231 232 233 233 233 233 232 232 232 232 233 234 235 236 236 237 239
263 256 250 244 245 243 237 234 232 231 229 226 227 227 225 226 230 232 234 235 235 237 240 247 248 243 241 245 243 235 231 232 229 211 171 182 198 201 203 206 209 210 210 209 210 212 214 215 216 218 219 220 221 222 224 225 226 227 228 228 229 229 229 229 229 229 229 230 231 232 233 234 234 235 234 234 233 233 234 235 236 237 238 238 239 240
264 259 253 248 247 244 240 238 234 232 232 232 229 229 228 227 229 234 237 239 241 242 244 246 244 240 238 240 239 230 224 225 226 218 190 159 183 194 199 206 209 209 209 207 208 211 214 216 218 219 221 222 222 223 224 226 227 228 229 230 230 230 231 230 230 230 231 231 232 233 234 234 235 235 234 234 234 234 235 236 237 238 239 239 240 241
266 265 259 251 247 245 243 241 237 234 235 237 235 234 232 229 229 235 239 243 247 247 245 243 240 237 235 232 231 228 223 221 225 223 212 192 183 183 189 198 202 201 202 204 207 212 215 219 221 222 223 224 224 225 226 227 228 230 231 232 232 232 232 232 231 232 233 233 234 235 235 235 235 235 235 234 234 235 235 236 237 239 239 240 240 241
265 264 257 251 249 246 245 246 245 240 238 241 241 238 236 235 234 236 239 243 245 246 246 242 236 236 235 227 224 227 223 218 222 228 226 212 195 186 180 181 185 188 193 200 206 211 215 219 222 224 225 225 225 226 228 229 230 231 232 234 234 233 233 233 233 233 233 234 234 235 236 237 237 236 235 235 235 235 235 236 237 238 238 238 239 240
263 259 252 250 252 249 245 248 248 242 240 241 241 238 238 238 237 235 237 241 242 243 245 240 233 234 237 227 221 227 227 221 221 226 230 230 220 205 188 177 175 178 185 194 202 207 211 215 219 221 222 222 223 226 228 230 231 232 233 234 234 235 234 233 233 233 233 234 235 236 237 238 238 237 236 236 237 238 237 235 235 236 237 238 239 240
260 260 255 254 257 253 246 247 245 242 242 240 239 239 238 237 236 236 237 239 239 240 243 238 230 231 238 231 223 227 231 228 227 226 226 231 229 213 198 187 178 174 177 186 194 201 207 211 215 218 219 220 222 225 227 229 231 232 233 233 234 235 235 234 234 234 234 235 236 236 237 237 238 238 237 236 237 239 238 235 234 235 236 238 240 241
256 260 259 258 261 256 249 246 244 242 242 240 240 241 239 236 235 238 239 238 237 238 237 230 224 226 232 231 225 227 230 230 231 229 221 220 226 220 210 200 190 184 183 186 188 191 197 203 208 213 217 220 222 225 227 229 231 233 234 235 236 237 238 237 235 235 236 236 235 236 236 236 236 236 237 236 235 236 237 236 236 236 237 239 241 242
255 257 257 257 262 259 249 243 242 244 244 243 245 244 239 237 236 237 237 234 232 234 233 227 223 223 225 227 224 225 228 229 232 236 226 218 222 226 223 215 205 197 193 193 192 190 191 196 201 207 213 218 221 224 227 229 231 234 236 237 239 239 240 239 238 238 237 236 235 235 235 234 235 235 237 238 235 233 234 235 235 237 238 239 242 243
255 254 254 254 257 258 252 246 248 252 248 243 244 241 235 236 237 236 236 232 228 229 231 229 225 223 224 225 222 223 230 233 235 240 233 220 215 215 217 215 208 200 195 194 196 196 197 199 200 202 205 210 216 221 225 228 230 232 236 239 240 239 239 240 240 239 238 237 236 234 233 233 234 234 234 235 233 232 233 234 235 237 239 240 242 243
255 257 255 253 254 256 255 253 252 252 248 241 240 239 236 237 237 235 236 234 226 223 226 227 225 223 223 221 219 222 229 231 230 232 227 215 206 202 203 202 198 193 190 192 195 197 199 200 198 195 193 197 205 213 219 223 224 227 231 236 237 237 238 239 240 239 237 236 235 233 231 231 232 231 231 233 233 232 233 234 236 238 240 242 243 244
255 262 257 253 252 249 250 253 249 247 249 245 242 241 237 235 235 233 236 236 226 219 220 222 222 222 220 219 220 224 225 222 222 226 226 215 198 191 193 193 189 187 185 186 189 191 193 196 194 189 186 186 189 196 203 208 212 216 219 223 225 227 230 234 236 235 232 230 230 229 227 226 228 230 231 234 235 235 235 235 235 238 241 242 243 244
251 257 254 250 252 250 248 252 252 250 251 250 246 244 237 234 234 232 233 233 224 219 219 218 218 220 219 220 224 227 226 222 219 220 223 216 198 191 195 191 182 182 183 184 186 182 181 186 187 185 184 185 189 194 196 196 200 204 205 204 206 208 213 219 223 225 224 222 221 220 220 222 225 229 231 233 234 235 235 234 235 238 241 241 242 244
251 253 253 252 254 254 250 252 256 255 254 252 248 242 236 234 233 231 231 231 223 218 218 217 218 218 219 221 226 227 223 216 211 210 213 212 203 201 205 202 190 184 183 187 192 187 181 181 184 183 182 181 181 185 186 185 184 181 179 179 181 181 182 187 196 203 203 202 203 206 210 217 223 228 231 230 230 231 232 233 236 238 241 242 242 244
249 250 255 255 255 256 253 253 257 258 256 253 246 240 237 236 234 234 234 231 224 218 217 217 217 216 218 221 223 220 213 206 203 203 205 205 202 201 202 200 199 198 192 190 193 190 184 180 176 174 180 184 187 189 188 183 179 176 173 169 168 171 174 174 172 173 172 173 179 186 193 203 212 219 224 224 224 226 229 232 235 238 240 241 241 242
249 249 254 255 255 256 252 250 255 259 258 252 243 240 239 239 240 241 237 230 223 219 217 217 216 216 218 219 216 210 206 203 202 199 198 199 200 197 195 194 193 195 197 195 193 189 184 177 171 169 175 183 188 190 186 180 182 186 182 174 174 180 185 184 175 164 160 164 172 181 189 196 203 208 211 210 212 217 222 226 233 238 241 242 242 243
248 250 256 255 254 254 249 247 255 262 262 258 252 250 247 246 245 243 236 229 223 221 219 217 215 215 217 216 212 207 203 202 201 197 193 193 192 189 190 189 184 184 189 191 190 188 182 176 175 177 177 175 173 174 173 173 181 187 184 184 192 195 189 185 181 172 165 167 174 183 192 198 201 206 208 210 213 218 224 230 236 240 242 243 244 246
251 255 261 259 256 257 258 259 264 267 266 264 262 260 256 250 245 239 233 228 223 221 221 219 215 215 215 213 210 207 204 201 199 195 192 190 186 181 184 186 181 176 178 180 182 181 176 175 177 180 181 183 182 178 175 173 171 173 180 191 199 200 194 191 189 185 181 180 185 193 199 202 208 215 220 225 230 235 240 244 244 243 243 244 246 249
254 256 262 263 261 262 264 264 265 267 269 268 265 261 256 248 241 235 230 226 223 221 221 220 217 214 212 211 208 207 205 203 199 196 194 194 193 191 190 190 187 180 176 177 178 175 172 174 178 182 186 192 191 182 176 173 169 172 186 198 203 207 210 207 203 203 205 207 212 218 219 220 225 232 237 242 247 251 254 255 253 251 252 253 254 255
248 248 257 263 261 261 263 264 265 268 269 268 263 258 251 244 237 232 226 223 223 221 219 220 219 214 210 208 206 204 204 203 201 199 197 198 200 200 198 197 196 193 189 188 186 181 176 174 176 179 183 191 196 194 189 183 181 186 196 202 207 215 220 222 222 225 228 229 231 234 237 240 244 249 254 258 260 261 262 262 259 257 257 258 259 259
243 244 254 260 259 265 271 271 270 270 267 263 258 252 245 238 232 228 223 218 217 217 216 218 218 214 210 207 204 203 203 203 202 200 200 200 201 202 201 200 199 199 198 196 195 191 186 180 176 174 177 184 191 195 193 191 192 196 199 205 214 222 227 231 235 235 233 233 235 240 244 249 254 258 260 262 263 263 262 261 260 259 259 261 262 263
237 239 250 258 261 270 275 269 266 268 265 258 255 250 242 234 227 222 220 215 212 213 216 217 215 210 206 204 203 202 201 200 199 198 197 197 197 198 199 199 199 199 198 198 197 195 191 188 184 182 184 191 194 196 198 203 209 211 208 212 220 225 230 233 236 238 240 240 241 246 250 253 258 260 262 262 262 263 263 264 265 264 264 265 267 267
232 236 247 258 264 271 270 256 254 262 263 257 257 252 241 232 222 214 212 211 210 210 211 211 209 203 198 196 197 195 193 193 194 194 193 193 192 192 194 196 197 198 198 197 196 194 192 193 194 194 198 203 205 204 206 212 219 224 225 227 230 233 235 237 238 242 246 248 251 254 256 257 260 262 263 264 265 265 267 268 270 271 270 269 269 270
229 230 234 246 264 275 263 239 236 252 259 256 261 255 237 227 218 208 204 204 205 203 200 199 199 196 192 188 186 185 186 187 187 187 187 188 188 186 188 191 194 198 199 197 195 194 195 197 199 202 208 215 219 220 222 225 230 236 240 243 246 247 247 248 249 250 253 256 258 260 261 262 263 265 266 267 268 270 270 271 272 274 274 273 272 273